Tracking 22438 objects as of 25-Feb-2021
HD Live streaming from Space Station
objects crossing your sky now

RWASAT-1

Track RWASAT-1 now!
10-day predictions
RWASAT-1 is classified as:


NORAD ID: 44790
Int'l Code: 1998-067QT
Perigee: 398.8 km
Apogee: 408.3 km
Inclination: 51.6 °
Period: 92.5 minutes
Semi major axis: 6774 km
RCS: Unknown
Launch date: November 20, 1998
Source: Republic of Rwanda (RWA)
Launch site: TYURATAM MISSILE AND SPACE COMPLEX (TTMTR)

Uplink (MHz):
Downlink (MHz):
Beacon (MHz):
Mode:
Call sign:
Status: Unknown

aabbcc
Your satellite tracking list
Your tracking list is empty




NASA's NSSDC Master Catalog

Two Line Element Set (TLE):
1 44790U 98067QV  21055.55871514  .00010904  00000-0  15478-3 0  9995
2 44790  51.6402 165.9664 0006986 227.5758 244.6162 15.56971498 71846
Source of the keplerian elements: AFSPC